Time,TemperatureF,DewpointF,PressureIn,WindDirection,WindDirectionDegrees,WindSpeedMPH,WindSpeedGustMPH,Humidity,HourlyPrecipIn,Conditions,Clouds,dailyrainin,SoftwareType,DateUTC
2013-03-21 00:00:00,26.3,10.6,30.02,SSE,158,1.0,8.0,51,0.00,,,0.00,Wunderground v.1.13,2013-03-21 04:00:00,
2013-03-21 00:05:00,26.3,10.6,30.02,SSE,158,1.0,8.0,51,0.00,,,0.00,Wunderground v.1.13,2013-03-21 04:05:00,
2013-03-21 00:10:00,26.3,10.6,30.02,SSE,158,1.0,8.0,51,0.00,,,0.00,Wunderground v.1.13,2013-03-21 04:10:00,
2013-03-21 00:15:00,26.3,10.6,30.02,SSE,158,1.0,8.0,51,0.00,,,0.00,Wunderground v.1.13,2013-03-21 04:15:00,
2013-03-21 00:25:00,26.3,10.6,30.02,SSE,158,1.0,8.0,51,0.00,,,0.00,Wunderground v.1.13,2013-03-21 04:25:00,
2013-03-21 00:30:00,26.3,10.6,30.02,SSE,158,1.0,8.0,51,0.00,,,0.00,Wunderground v.1.13,2013-03-21 04:30:00,
2013-03-21 00:35:00,26.3,10.6,30.02,SSE,158,1.0,8.0,51,0.00,,,0.00,Wunderground v.1.13,2013-03-21 04:35:00,
2013-03-21 00:40:00,26.3,10.6,30.02,SSE,158,1.0,8.0,51,0.00,,,0.00,Wunderground v.1.13,2013-03-21 04:40:00,
2013-03-21 00:45:00,26.3,11.0,30.01,SSE,158,1.0,7.0,52,0.00,,,0.00,Wunderground v.1.13,2013-03-21 04:45:00,
2013-03-21 00:50:00,26.3,11.0,30.01,SSE,158,1.0,7.0,52,0.00,,,0.00,Wunderground v.1.13,2013-03-21 04:50:00,
2013-03-21 00:55:00,26.3,11.0,30.01,SSE,158,1.0,7.0,52,0.00,,,0.00,Wunderground v.1.13,2013-03-21 04:55:00,
2013-03-21 01:00:00,26.3,11.0,30.01,SSE,158,1.0,7.0,52,0.00,,,0.00,Wunderground v.1.13,2013-03-21 05:00:00,
2013-03-21 01:05:00,26.3,11.0,30.01,SSE,158,1.0,7.0,52,0.00,,,0.00,Wunderground v.1.13,2013-03-21 05:05:00,
2013-03-21 01:10:00,26.3,11.0,30.01,SSE,158,1.0,7.0,52,0.00,,,0.00,Wunderground v.1.13,2013-03-21 05:10:00,
2013-03-21 01:15:00,26.0,10.3,30.01,SSE,158,2.0,13.0,51,0.00,,,0.00,Wunderground v.1.13,2013-03-21 05:15:00,
2013-03-21 01:20:00,26.0,10.3,30.01,SSE,158,2.0,13.0,51,0.00,,,0.00,Wunderground v.1.13,2013-03-21 05:20:00,
2013-03-21 01:30:00,26.0,10.3,30.01,SSE,158,2.0,13.0,51,0.00,,,0.00,Wunderground v.1.13,2013-03-21 05:30:00,
2013-03-21 01:35:00,26.0,10.3,30.01,SSE,158,2.0,13.0,51,0.00,,,0.00,Wunderground v.1.13,2013-03-21 05:35:00,
2013-03-21 01:40:00,26.0,10.3,30.01,SSE,158,2.0,13.0,51,0.00,,,0.00,Wunderground v.1.13,2013-03-21 05:40:00,
2013-03-21 01:45:00,26.0,10.3,30.01,SSE,158,1.0,7.0,51,0.00,,,0.00,Wunderground v.1.13,2013-03-21 05:45:00,
2013-03-21 01:50:00,26.0,10.3,30.01,SSE,158,1.0,7.0,51,0.00,,,0.00,Wunderground v.1.13,2013-03-21 05:50:00,
2013-03-21 02:00:00,26.0,10.3,30.01,SSE,158,1.0,7.0,51,0.00,,,0.00,Wunderground v.1.13,2013-03-21 06:00:00,
2013-03-21 02:05:00,26.0,10.3,30.01,SSE,158,1.0,7.0,51,0.00,,,0.00,Wunderground v.1.13,2013-03-21 06:05:00,
2013-03-21 02:10:00,26.0,10.3,30.01,SSE,158,1.0,7.0,51,0.00,,,0.00,Wunderground v.1.13,2013-03-21 06:10:00,
2013-03-21 02:15:00,25.6,7.7,30.01,SSE,158,2.0,10.0,46,0.00,,,0.00,Wunderground v.1.13,2013-03-21 06:15:00,
2013-03-21 02:20:00,25.6,7.7,30.01,SSE,158,2.0,10.0,46,0.00,,,0.00,Wunderground v.1.13,2013-03-21 06:20:00,
2013-03-21 02:25:00,25.6,7.7,30.01,SSE,158,2.0,10.0,46,0.00,,,0.00,Wunderground v.1.13,2013-03-21 06:25:00,
2013-03-21 02:30:00,25.6,7.7,30.01,SSE,158,2.0,10.0,46,0.00,,,0.00,Wunderground v.1.13,2013-03-21 06:30:00,
2013-03-21 02:35:00,25.6,7.7,30.01,SSE,158,2.0,10.0,46,0.00,,,0.00,Wunderground v.1.13,2013-03-21 06:35:00,
2013-03-21 02:40:00,25.6,7.7,30.01,SSE,158,2.0,10.0,46,0.00,,,0.00,Wunderground v.1.13,2013-03-21 06:40:00,
2013-03-21 02:45:00,25.3,8.8,30.00,SSE,158,2.0,13.0,49,0.00,,,0.00,Wunderground v.1.13,2013-03-21 06:45:00,
2013-03-21 02:55:00,25.3,8.8,30.00,SSE,158,2.0,13.0,49,0.00,,,0.00,Wunderground v.1.13,2013-03-21 06:55:00,
2013-03-21 03:00:00,25.3,8.8,30.00,SSE,158,2.0,13.0,49,0.00,,,0.00,Wunderground v.1.13,2013-03-21 07:00:00,
2013-03-21 03:05:00,25.3,8.8,30.00,SSE,158,2.0,13.0,49,0.00,,,0.00,Wunderground v.1.13,2013-03-21 07:05:00,
2013-03-21 03:10:00,25.3,8.8,30.00,SSE,158,2.0,13.0,49,0.00,,,0.00,Wunderground v.1.13,2013-03-21 07:10:00,
2013-03-21 03:15:00,24.8,8.3,29.99,SSE,158,1.0,10.0,49,0.00,,,0.00,Wunderground v.1.13,2013-03-21 07:15:00,
2013-03-21 03:20:00,24.8,8.3,29.99,SSE,158,1.0,10.0,49,0.00,,,0.00,Wunderground v.1.13,2013-03-21 07:20:00,
2013-03-21 03:25:00,24.8,8.3,29.99,SSE,158,1.0,10.0,49,0.00,,,0.00,Wunderground v.1.13,2013-03-21 07:25:00,
2013-03-21 03:30:00,24.8,8.3,29.99,SSE,158,1.0,10.0,49,0.00,,,0.00,Wunderground v.1.13,2013-03-21 07:30:00,
2013-03-21 03:35:00,24.8,8.3,29.99,SSE,158,1.0,10.0,49,0.00,,,0.00,Wunderground v.1.13,2013-03-21 07:35:00,
2013-03-21 03:40:00,24.8,8.3,29.99,SSE,158,1.0,10.0,49,0.00,,,0.00,Wunderground v.1.13,2013-03-21 07:40:00,
2013-03-21 03:45:00,24.2,8.2,29.99,SSE,158,1.0,7.0,50,0.00,,,0.00,Wunderground v.1.13,2013-03-21 07:45:00,
2013-03-21 03:50:00,24.2,8.2,29.99,SSE,158,1.0,7.0,50,0.00,,,0.00,Wunderground v.1.13,2013-03-21 07:50:00,
2013-03-21 03:55:00,24.2,8.2,29.99,SSE,158,1.0,7.0,50,0.00,,,0.00,Wunderground v.1.13,2013-03-21 07:55:00,
2013-03-21 04:00:00,24.2,8.2,29.99,SSE,158,1.0,7.0,50,0.00,,,0.00,Wunderground v.1.13,2013-03-21 08:00:00,
2013-03-21 04:05:00,24.2,8.2,29.99,SSE,158,1.0,7.0,50,0.00,,,0.00,Wunderground v.1.13,2013-03-21 08:05:00,
2013-03-21 04:10:00,24.2,8.2,29.99,SSE,158,1.0,7.0,50,0.00,,,0.00,Wunderground v.1.13,2013-03-21 08:10:00,
2013-03-21 04:15:00,23.8,7.8,29.98,SSE,158,1.0,8.0,50,0.00,,,0.00,Wunderground v.1.13,2013-03-21 08:15:00,
2013-03-21 04:20:00,23.8,7.8,29.98,SSE,158,1.0,8.0,50,0.00,,,0.00,Wunderground v.1.13,2013-03-21 08:20:00,
2013-03-21 04:25:00,23.8,7.8,29.98,SSE,158,1.0,8.0,50,0.00,,,0.00,Wunderground v.1.13,2013-03-21 08:25:00,
2013-03-21 04:30:00,23.8,7.8,29.98,SSE,158,1.0,8.0,50,0.00,,,0.00,Wunderground v.1.13,2013-03-21 08:30:00,
2013-03-21 04:35:00,23.8,7.8,29.98,SSE,158,1.0,8.0,50,0.00,,,0.00,Wunderground v.1.13,2013-03-21 08:35:00,
2013-03-21 04:40:00,23.8,7.8,29.98,SSE,158,1.0,8.0,50,0.00,,,0.00,Wunderground v.1.13,2013-03-21 08:40:00,
2013-03-21 04:45:00,23.6,9.4,29.98,South,180,1.0,6.0,54,0.00,,,0.00,Wunderground v.1.13,2013-03-21 08:45:00,
2013-03-21 04:50:00,23.6,9.4,29.98,South,180,1.0,6.0,54,0.00,,,0.00,Wunderground v.1.13,2013-03-21 08:50:00,
2013-03-21 04:55:00,23.6,9.4,29.98,South,180,1.0,6.0,54,0.00,,,0.00,Wunderground v.1.13,2013-03-21 08:55:00,
2013-03-21 05:00:00,23.6,9.4,29.98,South,180,1.0,6.0,54,0.00,,,0.00,Wunderground v.1.13,2013-03-21 09:00:00,
2013-03-21 05:05:00,23.6,9.4,29.98,South,180,1.0,6.0,54,0.00,,,0.00,Wunderground v.1.13,2013-03-21 09:05:00,
2013-03-21 05:10:00,23.6,9.4,29.98,South,180,1.0,6.0,54,0.00,,,0.00,Wunderground v.1.13,2013-03-21 09:10:00,
2013-03-21 05:15:00,23.8,10.0,29.99,SSE,158,1.0,11.0,55,0.00,,,0.00,Wunderground v.1.13,2013-03-21 09:15:00,
2013-03-21 05:20:00,23.8,10.0,29.99,SSE,158,1.0,11.0,55,0.00,,,0.00,Wunderground v.1.13,2013-03-21 09:20:00,
2013-03-21 05:25:00,23.8,10.0,29.99,SSE,158,1.0,11.0,55,0.00,,,0.00,Wunderground v.1.13,2013-03-21 09:25:00,
2013-03-21 05:30:00,23.8,10.0,29.99,SSE,158,1.0,11.0,55,0.00,,,0.00,Wunderground v.1.13,2013-03-21 09:30:00,
2013-03-21 05:35:00,23.8,10.0,29.99,SSE,158,1.0,11.0,55,0.00,,,0.00,Wunderground v.1.13,2013-03-21 09:35:00,
2013-03-21 05:40:00,23.8,10.0,29.99,SSE,158,1.0,11.0,55,0.00,,,0.00,Wunderground v.1.13,2013-03-21 09:40:00,
2013-03-21 05:45:00,23.5,10.5,29.99,SSE,158,1.0,7.0,57,0.00,,,0.00,Wunderground v.1.13,2013-03-21 09:45:00,
2013-03-21 05:50:00,23.5,10.5,29.99,SSE,158,1.0,7.0,57,0.00,,,0.00,Wunderground v.1.13,2013-03-21 09:50:00,
2013-03-21 05:55:00,23.5,10.5,29.99,SSE,158,1.0,7.0,57,0.00,,,0.00,Wunderground v.1.13,2013-03-21 09:55:00,
2013-03-21 06:00:00,23.5,10.5,29.99,SSE,158,1.0,7.0,57,0.00,,,0.00,Wunderground v.1.13,2013-03-21 10:00:00,
2013-03-21 06:05:00,23.5,10.5,29.99,SSE,158,1.0,7.0,57,0.00,,,0.00,Wunderground v.1.13,2013-03-21 10:05:00,
2013-03-21 06:10:00,23.5,10.5,29.99,SSE,158,1.0,7.0,57,0.00,,,0.00,Wunderground v.1.13,2013-03-21 10:10:00,
2013-03-21 06:15:00,23.2,11.4,30.00,SSE,158,1.0,6.0,60,0.00,,,0.00,Wunderground v.1.13,2013-03-21 10:15:00,
2013-03-21 06:20:00,23.2,11.4,30.00,SSE,158,1.0,6.0,60,0.00,,,0.00,Wunderground v.1.13,2013-03-21 10:20:00,
2013-03-21 06:25:00,23.2,11.4,30.00,SSE,158,1.0,6.0,60,0.00,,,0.00,Wunderground v.1.13,2013-03-21 10:25:00,
2013-03-21 06:30:00,23.2,11.4,30.00,SSE,158,1.0,6.0,60,0.00,,,0.00,Wunderground v.1.13,2013-03-21 10:30:00,
2013-03-21 06:35:00,23.2,11.4,30.00,SSE,158,1.0,6.0,60,0.00,,,0.00,Wunderground v.1.13,2013-03-21 10:35:00,
2013-03-21 06:40:00,23.2,11.4,30.00,SSE,158,1.0,6.0,60,0.00,,,0.00,Wunderground v.1.13,2013-03-21 10:40:00,
2013-03-21 06:45:00,22.9,10.3,30.01,SSE,158,1.0,13.0,58,0.00,,,0.00,Wunderground v.1.13,2013-03-21 10:45:00,
2013-03-21 06:50:00,22.9,10.3,30.01,SSE,158,1.0,13.0,58,0.00,,,0.00,Wunderground v.1.13,2013-03-21 10:50:00,
2013-03-21 06:55:00,22.9,10.3,30.01,SSE,158,1.0,13.0,58,0.00,,,0.00,Wunderground v.1.13,2013-03-21 10:55:00,
2013-03-21 07:00:00,22.9,10.3,30.01,SSE,158,1.0,13.0,58,0.00,,,0.00,Wunderground v.1.13,2013-03-21 11:00:00,
2013-03-21 07:05:00,22.9,10.3,30.01,SSE,158,1.0,13.0,58,0.00,,,0.00,Wunderground v.1.13,2013-03-21 11:05:00,
2013-03-21 07:10:00,22.9,10.3,30.01,SSE,158,1.0,13.0,58,0.00,,,0.00,Wunderground v.1.13,2013-03-21 11:10:00,
2013-03-21 07:15:00,23.2,10.6,30.01,South,180,2.0,13.0,58,0.00,,,0.00,Wunderground v.1.13,2013-03-21 11:15:00,
2013-03-21 07:20:00,23.2,10.6,30.01,South,180,2.0,13.0,58,0.00,,,0.00,Wunderground v.1.13,2013-03-21 11:20:00,
2013-03-21 07:25:00,23.2,10.6,30.01,South,180,2.0,13.0,58,0.00,,,0.00,Wunderground v.1.13,2013-03-21 11:25:00,
2013-03-21 07:30:00,23.2,10.6,30.01,South,180,2.0,13.0,58,0.00,,,0.00,Wunderground v.1.13,2013-03-21 11:30:00,
2013-03-21 07:35:00,23.2,10.6,30.01,South,180,2.0,13.0,58,0.00,,,0.00,Wunderground v.1.13,2013-03-21 11:35:00,
2013-03-21 07:40:00,23.2,10.6,30.01,South,180,2.0,13.0,58,0.00,,,0.00,Wunderground v.1.13,2013-03-21 11:40:00,
2013-03-21 07:45:00,23.0,10.4,30.02,SSW,203,2.0,12.0,58,0.00,,,0.00,Wunderground v.1.13,2013-03-21 11:45:00,
2013-03-21 07:50:00,23.0,10.4,30.02,SSW,203,2.0,12.0,58,0.00,,,0.00,Wunderground v.1.13,2013-03-21 11:50:00,
2013-03-21 07:55:00,23.0,10.4,30.02,SSW,203,2.0,12.0,58,0.00,,,0.00,Wunderground v.1.13,2013-03-21 11:55:00,
2013-03-21 08:00:00,23.0,10.4,30.02,SSW,203,2.0,12.0,58,0.00,,,0.00,Wunderground v.1.13,2013-03-21 12:00:00,
2013-03-21 08:05:00,23.0,10.4,30.02,SSW,203,2.0,12.0,58,0.00,,,0.00,Wunderground v.1.13,2013-03-21 12:05:00,
2013-03-21 08:10:00,23.0,10.4,30.02,SSW,203,2.0,12.0,58,0.00,,,0.00,Wunderground v.1.13,2013-03-21 12:10:00,
2013-03-21 08:15:00,23.8,9.1,30.04,SW,225,3.0,16.0,53,0.00,,,0.00,Wunderground v.1.13,2013-03-21 12:15:00,
2013-03-21 08:20:00,23.8,9.1,30.04,SW,225,3.0,16.0,53,0.00,,,0.00,Wunderground v.1.13,2013-03-21 12:20:00,
2013-03-21 08:25:00,23.8,9.1,30.04,SW,225,3.0,16.0,53,0.00,,,0.00,Wunderground v.1.13,2013-03-21 12:25:00,
2013-03-21 08:30:00,23.8,9.1,30.04,SW,225,3.0,16.0,53,0.00,,,0.00,Wunderground v.1.13,2013-03-21 12:30:00,
2013-03-21 08:35:00,23.8,9.1,30.04,SW,225,3.0,16.0,53,0.00,,,0.00,Wunderground v.1.13,2013-03-21 12:35:00,
2013-03-21 08:40:00,23.8,9.1,30.04,SW,225,3.0,16.0,53,0.00,,,0.00,Wunderground v.1.13,2013-03-21 12:40:00,
2013-03-21 08:45:00,24.4,9.3,30.04,West,270,3.0,12.0,52,0.00,,,0.00,Wunderground v.1.13,2013-03-21 12:45:00,
2013-03-21 08:50:00,24.4,9.3,30.04,West,270,3.0,12.0,52,0.00,,,0.00,Wunderground v.1.13,2013-03-21 12:50:00,
2013-03-21 08:55:00,24.4,9.3,30.04,West,270,3.0,12.0,52,0.00,,,0.00,Wunderground v.1.13,2013-03-21 12:55:00,
2013-03-21 09:00:00,24.4,9.3,30.04,West,270,3.0,12.0,52,0.00,,,0.00,Wunderground v.1.13,2013-03-21 13:00:00,
2013-03-21 09:05:00,24.4,9.3,30.04,West,270,3.0,12.0,52,0.00,,,0.00,Wunderground v.1.13,2013-03-21 13:05:00,
2013-03-21 09:20:00,26.0,8.5,30.04,SSE,158,2.0,8.0,47,0.00,,,0.00,Wunderground v.1.13,2013-03-21 13:20:00,
2013-03-21 09:25:00,26.0,8.5,30.04,SSE,158,2.0,8.0,47,0.00,,,0.00,Wunderground v.1.13,2013-03-21 13:25:00,
2013-03-21 09:30:00,26.0,8.5,30.04,SSE,158,2.0,8.0,47,0.00,,,0.00,Wunderground v.1.13,2013-03-21 13:30:00,
2013-03-21 09:35:00,26.0,8.5,30.04,SSE,158,2.0,8.0,47,0.00,,,0.00,Wunderground v.1.13,2013-03-21 13:35:00,
2013-03-21 09:40:00,26.0,8.5,30.04,SSE,158,2.0,8.0,47,0.00,,,0.00,Wunderground v.1.13,2013-03-21 13:40:00,
2013-03-21 09:45:00,26.4,6.9,30.05,SSE,158,2.0,14.0,43,0.00,,,0.00,Wunderground v.1.13,2013-03-21 13:45:00,
2013-03-21 09:50:00,26.4,6.9,30.05,SSE,158,2.0,14.0,43,0.00,,,0.00,Wunderground v.1.13,2013-03-21 13:50:00,
2013-03-21 09:55:00,26.4,6.9,30.05,SSE,158,2.0,14.0,43,0.00,,,0.00,Wunderground v.1.13,2013-03-21 13:55:00,
2013-03-21 10:00:00,26.4,6.9,30.05,SSE,158,2.0,14.0,43,0.00,,,0.00,Wunderground v.1.13,2013-03-21 14:00:00,
2013-03-21 10:05:00,26.4,6.9,30.05,SSE,158,2.0,14.0,43,0.00,,,0.00,Wunderground v.1.13,2013-03-21 14:05:00,
2013-03-21 10:10:00,26.4,6.9,30.05,SSE,158,2.0,14.0,43,0.00,,,0.00,Wunderground v.1.13,2013-03-21 14:10:00,
2013-03-21 10:15:00,27.8,6.0,30.05,WSW,248,2.0,11.0,39,0.00,,,0.00,Wunderground v.1.13,2013-03-21 14:15:00,
2013-03-21 10:20:00,27.8,6.0,30.05,WSW,248,2.0,11.0,39,0.00,,,0.00,Wunderground v.1.13,2013-03-21 14:20:00,
2013-03-21 10:25:00,27.8,6.0,30.05,WSW,248,2.0,11.0,39,0.00,,,0.00,Wunderground v.1.13,2013-03-21 14:25:00,
2013-03-21 10:30:00,27.8,6.0,30.05,WSW,248,2.0,11.0,39,0.00,,,0.00,Wunderground v.1.13,2013-03-21 14:30:00,
2013-03-21 10:35:00,27.8,6.0,30.05,WSW,248,2.0,11.0,39,0.00,,,0.00,Wunderground v.1.13,2013-03-21 14:35:00,
2013-03-21 10:40:00,27.8,6.0,30.05,WSW,248,2.0,11.0,39,0.00,,,0.00,Wunderground v.1.13,2013-03-21 14:40:00,
2013-03-21 10:45:00,28.8,5.2,30.05,SE,135,1.0,9.0,36,0.00,,,0.00,Wunderground v.1.13,2013-03-21 14:45:00,
2013-03-21 10:50:00,28.8,5.2,30.05,SE,135,1.0,9.0,36,0.00,,,0.00,Wunderground v.1.13,2013-03-21 14:50:00,
2013-03-21 10:55:00,28.8,5.2,30.05,SE,135,1.0,9.0,36,0.00,,,0.00,Wunderground v.1.13,2013-03-21 14:55:00,
2013-03-21 11:00:00,28.8,5.2,30.05,SE,135,1.0,9.0,36,0.00,,,0.00,Wunderground v.1.13,2013-03-21 15:00:00,
2013-03-21 11:05:00,28.8,5.2,30.05,SE,135,1.0,9.0,36,0.00,,,0.00,Wunderground v.1.13,2013-03-21 15:05:00,
2013-03-21 11:10:00,28.8,5.2,30.05,SE,135,1.0,9.0,36,0.00,,,0.00,Wunderground v.1.13,2013-03-21 15:10:00,
2013-03-21 11:15:00,32.1,4.8,30.06,SSE,158,1.0,11.0,31,0.00,,,0.00,Wunderground v.1.13,2013-03-21 15:15:00,
2013-03-21 11:20:00,32.1,4.8,30.06,SSE,158,1.0,11.0,31,0.00,,,0.00,Wunderground v.1.13,2013-03-21 15:20:00,
2013-03-21 11:25:00,32.1,4.8,30.06,SSE,158,1.0,11.0,31,0.00,,,0.00,Wunderground v.1.13,2013-03-21 15:25:00,
2013-03-21 11:30:00,32.1,4.8,30.06,SSE,158,1.0,11.0,31,0.00,,,0.00,Wunderground v.1.13,2013-03-21 15:30:00,
2013-03-21 11:35:00,32.1,4.8,30.06,SSE,158,1.0,11.0,31,0.00,,,0.00,Wunderground v.1.13,2013-03-21 15:35:00,
2013-03-21 11:40:00,32.1,4.8,30.06,SSE,158,1.0,11.0,31,0.00,,,0.00,Wunderground v.1.13,2013-03-21 15:40:00,
2013-03-21 11:45:00,33.1,3.5,30.06,WSW,248,2.0,10.0,28,0.00,,,0.00,Wunderground v.1.13,2013-03-21 15:45:00,
2013-03-21 11:50:00,33.1,3.5,30.06,WSW,248,2.0,10.0,28,0.00,,,0.00,Wunderground v.1.13,2013-03-21 15:50:00,
2013-03-21 11:55:00,33.1,3.5,30.06,WSW,248,2.0,10.0,28,0.00,,,0.00,Wunderground v.1.13,2013-03-21 15:55:00,
2013-03-21 12:00:00,33.1,3.5,30.06,WSW,248,2.0,10.0,28,0.00,,,0.00,Wunderground v.1.13,2013-03-21 16:00:00,
2013-03-21 12:05:00,33.1,3.5,30.06,WSW,248,2.0,10.0,28,0.00,,,0.00,Wunderground v.1.13,2013-03-21 16:05:00,
2013-03-21 12:10:00,33.1,3.5,30.06,WSW,248,2.0,10.0,28,0.00,,,0.00,Wunderground v.1.13,2013-03-21 16:10:00,
2013-03-21 12:15:00,33.8,5.6,30.05,WSW,248,1.0,11.0,30,0.00,,,0.00,Wunderground v.1.13,2013-03-21 16:15:00,
2013-03-21 12:20:00,33.8,5.6,30.05,WSW,248,1.0,11.0,30,0.00,,,0.00,Wunderground v.1.13,2013-03-21 16:20:00,
2013-03-21 12:25:00,33.8,5.6,30.05,WSW,248,1.0,11.0,30,0.00,,,0.00,Wunderground v.1.13,2013-03-21 16:25:00,
2013-03-21 12:30:00,33.8,5.6,30.05,WSW,248,1.0,11.0,30,0.00,,,0.00,Wunderground v.1.13,2013-03-21 16:30:00,
2013-03-21 12:35:00,33.8,5.6,30.05,WSW,248,1.0,11.0,30,0.00,,,0.00,Wunderground v.1.13,2013-03-21 16:35:00,
2013-03-21 12:40:00,33.8,5.6,30.05,WSW,248,1.0,11.0,30,0.00,,,0.00,Wunderground v.1.13,2013-03-21 16:40:00,
2013-03-21 12:45:00,36.0,5.2,30.05,South,180,1.0,7.0,27,0.00,,,0.00,Wunderground v.1.13,2013-03-21 16:45:00,
2013-03-21 12:50:00,36.0,5.2,30.05,South,180,1.0,7.0,27,0.00,,,0.00,Wunderground v.1.13,2013-03-21 16:50:00,
2013-03-21 12:55:00,36.0,5.2,30.05,South,180,1.0,7.0,27,0.00,,,0.00,Wunderground v.1.13,2013-03-21 16:55:00,
2013-03-21 13:00:00,36.0,5.2,30.05,South,180,1.0,7.0,27,0.00,,,0.00,Wunderground v.1.13,2013-03-21 17:00:00,
2013-03-21 13:05:00,36.0,5.2,30.05,South,180,1.0,7.0,27,0.00,,,0.00,Wunderground v.1.13,2013-03-21 17:05:00,
2013-03-21 13:10:00,36.0,5.2,30.05,South,180,1.0,7.0,27,0.00,,,0.00,Wunderground v.1.13,2013-03-21 17:10:00,
2013-03-21 13:15:00,34.7,6.4,30.04,WSW,248,2.0,12.0,30,0.00,,,0.00,Wunderground v.1.13,2013-03-21 17:15:00,
2013-03-21 13:20:00,34.7,6.4,30.04,WSW,248,2.0,12.0,30,0.00,,,0.00,Wunderground v.1.13,2013-03-21 17:20:00,
2013-03-21 13:25:00,34.7,6.4,30.04,WSW,248,2.0,12.0,30,0.00,,,0.00,Wunderground v.1.13,2013-03-21 17:25:00,
2013-03-21 13:30:00,34.7,6.4,30.04,WSW,248,2.0,12.0,30,0.00,,,0.00,Wunderground v.1.13,2013-03-21 17:30:00,
2013-03-21 13:35:00,34.7,6.4,30.04,WSW,248,2.0,12.0,30,0.00,,,0.00,Wunderground v.1.13,2013-03-21 17:35:00,
2013-03-21 13:40:00,34.7,6.4,30.04,WSW,248,2.0,12.0,30,0.00,,,0.00,Wunderground v.1.13,2013-03-21 17:40:00,
2013-03-21 13:45:00,36.6,5.7,30.04,WSW,248,2.0,11.0,27,0.00,,,0.00,Wunderground v.1.13,2013-03-21 17:45:00,
2013-03-21 13:50:00,36.6,5.7,30.04,WSW,248,2.0,11.0,27,0.00,,,0.00,Wunderground v.1.13,2013-03-21 17:50:00,
2013-03-21 13:55:00,36.6,5.7,30.04,WSW,248,2.0,11.0,27,0.00,,,0.00,Wunderground v.1.13,2013-03-21 17:55:00,
2013-03-21 14:00:00,36.6,5.7,30.04,WSW,248,2.0,11.0,27,0.00,,,0.00,Wunderground v.1.13,2013-03-21 18:00:00,
2013-03-21 14:05:00,36.6,5.7,30.04,WSW,248,2.0,11.0,27,0.00,,,0.00,Wunderground v.1.13,2013-03-21 18:05:00,
2013-03-21 14:10:00,36.6,5.7,30.04,WSW,248,2.0,11.0,27,0.00,,,0.00,Wunderground v.1.13,2013-03-21 18:10:00,
2013-03-21 14:15:00,38.3,8.0,30.03,SW,225,1.0,8.0,28,0.00,,,0.00,Wunderground v.1.13,2013-03-21 18:15:00,
2013-03-21 14:20:00,38.3,8.0,30.03,SW,225,1.0,8.0,28,0.00,,,0.00,Wunderground v.1.13,2013-03-21 18:20:00,
2013-03-21 14:25:00,38.3,8.0,30.03,SW,225,1.0,8.0,28,0.00,,,0.00,Wunderground v.1.13,2013-03-21 18:25:00,
2013-03-21 14:30:00,38.3,8.0,30.03,SW,225,1.0,8.0,28,0.00,,,0.00,Wunderground v.1.13,2013-03-21 18:30:00,
2013-03-21 14:35:00,38.3,8.0,30.03,SW,225,1.0,8.0,28,0.00,,,0.00,Wunderground v.1.13,2013-03-21 18:35:00,
2013-03-21 14:40:00,38.3,8.0,30.03,SW,225,1.0,8.0,28,0.00,,,0.00,Wunderground v.1.13,2013-03-21 18:40:00,
2013-03-21 14:45:00,37.8,6.8,30.03,SSE,158,1.0,8.0,27,0.00,,,0.00,Wunderground v.1.13,2013-03-21 18:45:00,
2013-03-21 14:50:00,37.8,6.8,30.03,SSE,158,1.0,8.0,27,0.00,,,0.00,Wunderground v.1.13,2013-03-21 18:50:00,
2013-03-21 14:55:00,37.8,6.8,30.03,SSE,158,1.0,8.0,27,0.00,,,0.00,Wunderground v.1.13,2013-03-21 18:55:00,
2013-03-21 15:00:00,37.8,6.8,30.03,SSE,158,1.0,8.0,27,0.00,,,0.00,Wunderground v.1.13,2013-03-21 19:00:00,
2013-03-21 15:05:00,37.8,6.8,30.03,SSE,158,1.0,8.0,27,0.00,,,0.00,Wunderground v.1.13,2013-03-21 19:05:00,
2013-03-21 15:10:00,37.8,6.8,30.03,SSE,158,1.0,8.0,27,0.00,,,0.00,Wunderground v.1.13,2013-03-21 19:10:00,
2013-03-21 15:15:00,39.2,7.1,30.02,SE,135,1.0,7.0,26,0.00,,,0.00,Wunderground v.1.13,2013-03-21 19:15:00,
2013-03-21 15:20:00,39.2,7.1,30.02,SE,135,1.0,7.0,26,0.00,,,0.00,Wunderground v.1.13,2013-03-21 19:20:00,
2013-03-21 15:25:00,39.2,7.1,30.02,SE,135,1.0,7.0,26,0.00,,,0.00,Wunderground v.1.13,2013-03-21 19:25:00,
2013-03-21 15:30:00,39.2,7.1,30.02,SE,135,1.0,7.0,26,0.00,,,0.00,Wunderground v.1.13,2013-03-21 19:30:00,
2013-03-21 15:35:00,39.2,7.1,30.02,SE,135,1.0,7.0,26,0.00,,,0.00,Wunderground v.1.13,2013-03-21 19:35:00,
2013-03-21 15:40:00,39.2,7.1,30.02,SE,135,1.0,7.0,26,0.00,,,0.00,Wunderground v.1.13,2013-03-21 19:40:00,
2013-03-21 15:45:00,36.5,9.4,30.02,SE,135,1.0,6.0,32,0.00,,,0.00,Wunderground v.1.13,2013-03-21 19:45:00,
2013-03-21 15:50:00,36.5,9.4,30.02,SE,135,1.0,6.0,32,0.00,,,0.00,Wunderground v.1.13,2013-03-21 19:50:00,
2013-03-21 15:55:00,36.5,9.4,30.02,SE,135,1.0,6.0,32,0.00,,,0.00,Wunderground v.1.13,2013-03-21 19:55:00,
2013-03-21 16:00:00,36.5,9.4,30.02,SE,135,1.0,6.0,32,0.00,,,0.00,Wunderground v.1.13,2013-03-21 20:00:00,
2013-03-21 16:05:00,36.5,9.4,30.02,SE,135,1.0,6.0,32,0.00,,,0.00,Wunderground v.1.13,2013-03-21 20:05:00,
2013-03-21 16:10:00,36.5,9.4,30.02,SE,135,1.0,6.0,32,0.00,,,0.00,Wunderground v.1.13,2013-03-21 20:10:00,
2013-03-21 16:15:00,36.5,8.7,30.03,SSE,158,1.0,8.0,31,0.00,,,0.00,Wunderground v.1.13,2013-03-21 20:15:00,
2013-03-21 16:20:00,36.5,8.7,30.03,SSE,158,1.0,8.0,31,0.00,,,0.00,Wunderground v.1.13,2013-03-21 20:20:00,
2013-03-21 16:25:00,36.5,8.7,30.03,SSE,158,1.0,8.0,31,0.00,,,0.00,Wunderground v.1.13,2013-03-21 20:25:00,
2013-03-21 16:30:00,36.5,8.7,30.03,SSE,158,1.0,8.0,31,0.00,,,0.00,Wunderground v.1.13,2013-03-21 20:30:00,
2013-03-21 16:35:00,36.5,8.7,30.03,SSE,158,1.0,8.0,31,0.00,,,0.00,Wunderground v.1.13,2013-03-21 20:35:00,
2013-03-21 16:40:00,36.5,8.7,30.03,SSE,158,1.0,8.0,31,0.00,,,0.00,Wunderground v.1.13,2013-03-21 20:40:00,
2013-03-21 16:45:00,35.8,10.1,30.02,West,270,1.0,7.0,34,0.00,,,0.00,Wunderground v.1.13,2013-03-21 20:45:00,
2013-03-21 16:50:00,35.8,10.1,30.02,West,270,1.0,7.0,34,0.00,,,0.00,Wunderground v.1.13,2013-03-21 20:50:00,
2013-03-21 16:55:00,35.8,10.1,30.02,West,270,1.0,7.0,34,0.00,,,0.00,Wunderground v.1.13,2013-03-21 20:55:00,
2013-03-21 17:00:00,35.8,10.1,30.02,West,270,1.0,7.0,34,0.00,,,0.00,Wunderground v.1.13,2013-03-21 21:00:00,
2013-03-21 17:05:00,35.8,10.1,30.02,West,270,1.0,7.0,34,0.00,,,0.00,Wunderground v.1.13,2013-03-21 21:05:00,
2013-03-21 17:10:00,35.8,10.1,30.02,West,270,1.0,7.0,34,0.00,,,0.00,Wunderground v.1.13,2013-03-21 21:10:00,
2013-03-21 17:15:00,34.4,7.5,30.03,WSW,248,1.0,7.0,32,0.00,,,0.00,Wunderground v.1.13,2013-03-21 21:15:00,
2013-03-21 17:20:00,34.4,7.5,30.03,WSW,248,1.0,7.0,32,0.00,,,0.00,Wunderground v.1.13,2013-03-21 21:20:00,
2013-03-21 17:25:00,34.4,7.5,30.03,WSW,248,1.0,7.0,32,0.00,,,0.00,Wunderground v.1.13,2013-03-21 21:25:00,
2013-03-21 17:30:00,34.4,7.5,30.03,WSW,248,1.0,7.0,32,0.00,,,0.00,Wunderground v.1.13,2013-03-21 21:30:00,
2013-03-21 17:35:00,34.4,7.5,30.03,WSW,248,1.0,7.0,32,0.00,,,0.00,Wunderground v.1.13,2013-03-21 21:35:00,
2013-03-21 17:40:00,34.4,7.5,30.03,WSW,248,1.0,7.0,32,0.00,,,0.00,Wunderground v.1.13,2013-03-21 21:40:00,
2013-03-21 17:45:00,33.8,7.7,30.03,WSW,248,1.0,8.0,33,0.00,,,0.00,Wunderground v.1.13,2013-03-21 21:45:00,
2013-03-21 17:50:00,33.8,7.7,30.03,WSW,248,1.0,8.0,33,0.00,,,0.00,Wunderground v.1.13,2013-03-21 21:50:00,
2013-03-21 17:55:00,33.8,7.7,30.03,WSW,248,1.0,8.0,33,0.00,,,0.00,Wunderground v.1.13,2013-03-21 21:55:00,
2013-03-21 18:00:00,33.8,7.7,30.03,WSW,248,1.0,8.0,33,0.00,,,0.00,Wunderground v.1.13,2013-03-21 22:00:00,
2013-03-21 18:05:00,33.8,7.7,30.03,WSW,248,1.0,8.0,33,0.00,,,0.00,Wunderground v.1.13,2013-03-21 22:05:00,
2013-03-21 18:10:00,33.8,7.7,30.03,WSW,248,1.0,8.0,33,0.00,,,0.00,Wunderground v.1.13,2013-03-21 22:10:00,
2013-03-21 18:15:00,33.4,8.6,30.04,SW,225,0.0,6.0,35,0.00,,,0.00,Wunderground v.1.13,2013-03-21 22:15:00,
2013-03-21 18:20:00,33.4,8.6,30.04,SW,225,0.0,6.0,35,0.00,,,0.00,Wunderground v.1.13,2013-03-21 22:20:00,
2013-03-21 18:25:00,33.4,8.6,30.04,SW,225,0.0,6.0,35,0.00,,,0.00,Wunderground v.1.13,2013-03-21 22:25:00,
2013-03-21 18:30:00,33.4,8.6,30.04,SW,225,0.0,6.0,35,0.00,,,0.00,Wunderground v.1.13,2013-03-21 22:30:00,
2013-03-21 18:35:00,33.4,8.6,30.04,SW,225,0.0,6.0,35,0.00,,,0.00,Wunderground v.1.13,2013-03-21 22:35:00,
2013-03-21 18:40:00,33.4,8.6,30.04,SW,225,0.0,6.0,35,0.00,,,0.00,Wunderground v.1.13,2013-03-21 22:40:00,
2013-03-21 18:50:00,32.9,9.4,30.04,SSW,203,1.0,6.0,37,0.00,,,0.00,Wunderground v.1.13,2013-03-21 22:50:00,
2013-03-21 18:55:00,32.9,9.4,30.04,SSW,203,1.0,6.0,37,0.00,,,0.00,Wunderground v.1.13,2013-03-21 22:55:00,
2013-03-21 19:00:00,32.9,9.4,30.04,SSW,203,1.0,6.0,37,0.00,,,0.00,Wunderground v.1.13,2013-03-21 23:00:00,
2013-03-21 19:05:00,32.9,9.4,30.04,SSW,203,1.0,6.0,37,0.00,,,0.00,Wunderground v.1.13,2013-03-21 23:05:00,
2013-03-21 19:10:00,32.9,9.4,30.04,SSW,203,1.0,6.0,37,0.00,,,0.00,Wunderground v.1.13,2013-03-21 23:10:00,
2013-03-21 19:15:00,32.5,9.7,30.04,SW,225,0.0,6.0,38,0.00,,,0.00,Wunderground v.1.13,2013-03-21 23:15:00,
2013-03-21 19:20:00,32.5,9.7,30.04,SW,225,0.0,6.0,38,0.00,,,0.00,Wunderground v.1.13,2013-03-21 23:20:00,
2013-03-21 19:25:00,32.5,9.7,30.04,SW,225,0.0,6.0,38,0.00,,,0.00,Wunderground v.1.13,2013-03-21 23:25:00,
2013-03-21 19:30:00,32.5,9.7,30.04,SW,225,0.0,6.0,38,0.00,,,0.00,Wunderground v.1.13,2013-03-21 23:30:00,
2013-03-21 19:35:00,32.5,9.7,30.04,SW,225,0.0,6.0,38,0.00,,,0.00,Wunderground v.1.13,2013-03-21 23:35:00,
2013-03-21 19:40:00,32.5,9.7,30.04,SW,225,0.0,6.0,38,0.00,,,0.00,Wunderground v.1.13,2013-03-21 23:40:00,
2013-03-21 19:45:00,32.2,10.0,30.05,WSW,248,1.0,8.0,39,0.00,,,0.00,Wunderground v.1.13,2013-03-21 23:45:00,
2013-03-21 19:50:00,32.2,10.0,30.05,WSW,248,1.0,8.0,39,0.00,,,0.00,Wunderground v.1.13,2013-03-21 23:50:00,
2013-03-21 19:55:00,32.2,10.0,30.05,WSW,248,1.0,8.0,39,0.00,,,0.00,Wunderground v.1.13,2013-03-21 23:55:00,
2013-03-21 20:00:00,32.2,10.0,30.05,WSW,248,1.0,8.0,39,0.00,,,0.00,Wunderground v.1.13,2013-03-22 00:00:00,
2013-03-21 20:05:00,32.2,10.0,30.05,WSW,248,1.0,8.0,39,0.00,,,0.00,Wunderground v.1.13,2013-03-22 00:05:00,
2013-03-21 20:10:00,32.2,10.0,30.05,WSW,248,1.0,8.0,39,0.00,,,0.00,Wunderground v.1.13,2013-03-22 00:10:00,
2013-03-21 20:15:00,31.9,9.7,30.06,SW,225,1.0,8.0,39,0.00,,,0.00,Wunderground v.1.13,2013-03-22 00:15:00,
2013-03-21 20:20:00,31.9,9.7,30.06,SW,225,1.0,8.0,39,0.00,,,0.00,Wunderground v.1.13,2013-03-22 00:20:00,
2013-03-21 20:25:00,31.9,9.7,30.06,SW,225,1.0,8.0,39,0.00,,,0.00,Wunderground v.1.13,2013-03-22 00:25:00,
2013-03-21 20:30:00,31.9,9.7,30.06,SW,225,1.0,8.0,39,0.00,,,0.00,Wunderground v.1.13,2013-03-22 00:30:00,
2013-03-21 20:35:00,31.9,9.7,30.06,SW,225,1.0,8.0,39,0.00,,,0.00,Wunderground v.1.13,2013-03-22 00:35:00,
2013-03-21 20:40:00,31.9,9.7,30.06,SW,225,1.0,8.0,39,0.00,,,0.00,Wunderground v.1.13,2013-03-22 00:40:00,
2013-03-21 20:45:00,31.3,10.3,30.07,SSE,158,0.0,3.0,41,0.00,,,0.00,Wunderground v.1.13,2013-03-22 00:45:00,
2013-03-21 20:50:00,31.3,10.3,30.07,SSE,158,0.0,3.0,41,0.00,,,0.00,Wunderground v.1.13,2013-03-22 00:50:00,
2013-03-21 20:55:00,31.3,10.3,30.07,SSE,158,0.0,3.0,41,0.00,,,0.00,Wunderground v.1.13,2013-03-22 00:55:00,
2013-03-21 21:00:00,31.3,10.3,30.07,SSE,158,0.0,3.0,41,0.00,,,0.00,Wunderground v.1.13,2013-03-22 01:00:00,
2013-03-21 21:05:00,31.3,10.3,30.07,SSE,158,0.0,3.0,41,0.00,,,0.00,Wunderground v.1.13,2013-03-22 01:05:00,
2013-03-21 21:10:00,31.3,10.3,30.07,SSE,158,0.0,3.0,41,0.00,,,0.00,Wunderground v.1.13,2013-03-22 01:10:00,
2013-03-21 21:15:00,30.9,8.8,30.07,SSE,158,1.0,5.0,39,0.00,,,0.00,Wunderground v.1.13,2013-03-22 01:15:00,
2013-03-21 21:20:00,30.9,8.8,30.07,SSE,158,1.0,5.0,39,0.00,,,0.00,Wunderground v.1.13,2013-03-22 01:20:00,
2013-03-21 21:25:00,30.9,8.8,30.07,SSE,158,1.0,5.0,39,0.00,,,0.00,Wunderground v.1.13,2013-03-22 01:25:00,
2013-03-21 21:30:00,30.9,8.8,30.07,SSE,158,1.0,5.0,39,0.00,,,0.00,Wunderground v.1.13,2013-03-22 01:30:00,
2013-03-21 21:35:00,30.9,8.8,30.07,SSE,158,1.0,5.0,39,0.00,,,0.00,Wunderground v.1.13,2013-03-22 01:35:00,
2013-03-21 21:40:00,30.9,8.8,30.07,SSE,158,1.0,5.0,39,0.00,,,0.00,Wunderground v.1.13,2013-03-22 01:40:00,
2013-03-21 21:45:00,30.7,9.7,30.07,SE,135,0.0,3.0,41,0.00,,,0.00,Wunderground v.1.13,2013-03-22 01:45:00,
2013-03-21 21:50:00,30.7,9.7,30.07,SE,135,0.0,3.0,41,0.00,,,0.00,Wunderground v.1.13,2013-03-22 01:50:00,
2013-03-21 21:55:00,30.7,9.7,30.07,SE,135,0.0,3.0,41,0.00,,,0.00,Wunderground v.1.13,2013-03-22 01:55:00,
2013-03-21 22:00:00,30.7,9.7,30.07,SE,135,0.0,3.0,41,0.00,,,0.00,Wunderground v.1.13,2013-03-22 02:00:00,
2013-03-21 22:05:00,30.7,9.7,30.07,SE,135,0.0,3.0,41,0.00,,,0.00,Wunderground v.1.13,2013-03-22 02:05:00,
2013-03-21 22:10:00,30.7,9.7,30.07,SE,135,0.0,3.0,41,0.00,,,0.00,Wunderground v.1.13,2013-03-22 02:10:00,
2013-03-21 22:15:00,30.1,10.3,30.07,ESE,113,0.0,3.0,43,0.00,,,0.00,Wunderground v.1.13,2013-03-22 02:15:00,
2013-03-21 22:20:00,30.1,10.3,30.07,ESE,113,0.0,3.0,43,0.00,,,0.00,Wunderground v.1.13,2013-03-22 02:20:00,
2013-03-21 22:25:00,30.1,10.3,30.07,ESE,113,0.0,3.0,43,0.00,,,0.00,Wunderground v.1.13,2013-03-22 02:25:00,
2013-03-21 22:30:00,30.1,10.3,30.07,ESE,113,0.0,3.0,43,0.00,,,0.00,Wunderground v.1.13,2013-03-22 02:30:00,
2013-03-21 22:35:00,30.1,10.3,30.07,ESE,113,0.0,3.0,43,0.00,,,0.00,Wunderground v.1.13,2013-03-22 02:35:00,
2013-03-21 22:40:00,30.1,10.3,30.07,ESE,113,0.0,3.0,43,0.00,,,0.00,Wunderground v.1.13,2013-03-22 02:40:00,
2013-03-21 22:45:00,29.5,10.2,30.07,ESE,113,0.0,3.0,44,0.00,,,0.00,Wunderground v.1.13,2013-03-22 02:45:00,
2013-03-21 22:50:00,29.5,10.2,30.07,ESE,113,0.0,3.0,44,0.00,,,0.00,Wunderground v.1.13,2013-03-22 02:50:00,
2013-03-21 22:55:00,29.5,10.2,30.07,ESE,113,0.0,3.0,44,0.00,,,0.00,Wunderground v.1.13,2013-03-22 02:55:00,
2013-03-21 23:00:00,29.5,10.2,30.07,ESE,113,0.0,3.0,44,0.00,,,0.00,Wunderground v.1.13,2013-03-22 03:00:00,
2013-03-21 23:05:00,29.5,10.2,30.07,ESE,113,0.0,3.0,44,0.00,,,0.00,Wunderground v.1.13,2013-03-22 03:05:00,
2013-03-21 23:10:00,29.5,10.2,30.07,ESE,113,0.0,3.0,44,0.00,,,0.00,Wunderground v.1.13,2013-03-22 03:10:00,
2013-03-21 23:15:00,28.7,11.5,30.06,ESE,113,0.0,3.0,48,0.00,,,0.00,Wunderground v.1.13,2013-03-22 03:15:00,
2013-03-21 23:20:00,28.7,11.5,30.06,ESE,113,0.0,3.0,48,0.00,,,0.00,Wunderground v.1.13,2013-03-22 03:20:00,
2013-03-21 23:25:00,28.7,11.5,30.06,ESE,113,0.0,3.0,48,0.00,,,0.00,Wunderground v.1.13,2013-03-22 03:25:00,
2013-03-21 23:30:00,28.7,11.5,30.06,ESE,113,0.0,3.0,48,0.00,,,0.00,Wunderground v.1.13,2013-03-22 03:30:00,
2013-03-21 23:35:00,28.7,11.5,30.06,ESE,113,0.0,3.0,48,0.00,,,0.00,Wunderground v.1.13,2013-03-22 03:35:00,
2013-03-21 23:40:00,28.7,11.5,30.06,ESE,113,0.0,3.0,48,0.00,,,0.00,Wunderground v.1.13,2013-03-22 03:40:00,
2013-03-21 23:45:00,27.9,11.6,30.06,ESE,113,0.0,3.0,50,0.00,,,0.00,Wunderground v.1.13,2013-03-22 03:45:00,
2013-03-21 23:50:00,27.9,11.6,30.06,ESE,113,0.0,3.0,50,0.00,,,0.00,Wunderground v.1.13,2013-03-22 03:50:00,
2013-03-21 23:55:00,27.9,11.6,30.06,ESE,113,0.0,3.0,50,0.00,,,0.00,Wunderground v.1.13,2013-03-22 03:55:00,